RYR2GN LOWW-LATI

Flight info

Callsign RYR2GN
Flight time 1h 3m
Altitude 35000
Route STEIN DCT VEBAL DCT GUBOK DCT NEPSI DCT INLOT
Aircraft B738/M-SDE2E3FGHIRWXY/LB1

Departure

Time 2026-05-01 13:52
Airport Vienna International Airport (LOWW)

Arrival

Time 2026-05-01 14:56
Airport Tirana International Airport Mother Teresa (LATI)
Time Latitude Longitude Altitude Speed Heading
2026-05-01 13:35 48.11900 16.55697 608 ft 0 kts 26°
2026-05-01 13:46 48.11890 16.55690 607 ft 2 kts 26°
2026-05-01 13:46 48.11877 16.55681 608 ft 2 kts 26°
2026-05-01 13:46 48.11863 16.55671 608 ft 2 kts 26°
2026-05-01 13:47 48.11850 16.55661 607 ft 2 kts 27°
2026-05-01 13:47 48.11839 16.55644 607 ft 2 kts 72°
2026-05-01 13:47 48.11839 16.55622 607 ft 1 kts 108°
2026-05-01 13:47 48.11841 16.55613 607 ft 1 kts 120°
2026-05-01 13:48 48.11843 16.55609 607 ft 0 kts 116°
2026-05-01 13:49 48.11825 16.55663 607 ft 14 kts 116°
2026-05-01 13:50 48.11754 16.55887 607 ft 33 kts 114°
2026-05-01 13:50 48.11628 16.56273 608 ft 43 kts 118°
2026-05-01 13:50 48.11493 16.56686 608 ft 44 kts 116°
2026-05-01 13:50 48.11361 16.57096 608 ft 42 kts 118°
2026-05-01 13:51 48.11227 16.57271 608 ft 22 kts 204°
2026-05-01 13:51 48.11135 16.57200 608 ft 14 kts 209°
2026-05-01 13:51 48.11073 16.57085 608 ft 14 kts 264°
2026-05-01 13:51 48.11128 16.56876 608 ft 45 kts 297°
2026-05-01 13:52 48.11378 16.56110 608 ft 115 kts 295°
2026-05-01 13:52 48.11817 16.54782 654 ft 165 kts 298°
2026-05-01 13:52 48.12281 16.53290 1339 ft 164 kts 293°
2026-05-01 13:52 48.12350 16.51568 1968 ft 174 kts 264°
2026-05-01 13:53 48.11914 16.49803 2457 ft 193 kts 235°
2026-05-01 13:53 48.09220 16.48861 3399 ft 230 kts 169°
2026-05-01 13:53 48.07592 16.49281 3986 ft 246 kts 170°
2026-05-01 13:54 48.05857 16.49648 4593 ft 262 kts 172°
2026-05-01 13:54 48.03991 16.49975 5220 ft 278 kts 172°
2026-05-01 13:54 48.02050 16.50290 5989 ft 286 kts 173°
2026-05-01 13:54 48.00061 16.50610 6890 ft 290 kts 172°
2026-05-01 13:55 47.98049 16.50937 7731 ft 295 kts 172°
2026-05-01 13:55 47.96008 16.51272 8591 ft 299 kts 171°
2026-05-01 13:55 47.93953 16.51612 9413 ft 303 kts 171°
2026-05-01 13:55 47.91834 16.51963 10249 ft 307 kts 170°
2026-05-01 13:56 47.89657 16.52327 10766 ft 323 kts 170°
2026-05-01 13:56 47.87384 16.52707 11254 ft 338 kts 170°
2026-05-01 13:56 47.84983 16.53107 11690 ft 355 kts 170°
2026-05-01 13:56 47.82477 16.53522 12159 ft 370 kts 170°
2026-05-01 13:57 47.79852 16.53955 12586 ft 386 kts 170°
2026-05-01 13:57 47.77117 16.54405 12978 ft 402 kts 170°
2026-05-01 13:57 47.74267 16.54874 13401 ft 417 kts 170°
2026-05-01 13:57 47.71359 16.55350 13778 ft 432 kts 170°
2026-05-01 13:58 47.68353 16.55839 14459 ft 438 kts 170°
2026-05-01 13:58 47.65297 16.56332 15225 ft 442 kts 170°
2026-05-01 13:58 47.62259 16.56822 15920 ft 447 kts 170°
2026-05-01 13:58 47.59149 16.57324 16603 ft 451 kts 170°
2026-05-01 13:59 47.55998 16.57834 17344 ft 455 kts 170°
2026-05-01 13:59 47.52850 16.58343 18020 ft 459 kts 170°
2026-05-01 13:59 47.49690 16.58856 18601 ft 465 kts 170°
2026-05-01 13:59 47.46440 16.59401 19305 ft 467 kts 169°
2026-05-01 14:00 47.43229 16.60106 19890 ft 470 kts 165°
2026-05-01 14:00 47.40049 16.61195 20508 ft 471 kts 160°
2026-05-01 14:00 47.36881 16.62580 21109 ft 474 kts 157°
2026-05-01 14:00 47.33733 16.64119 21703 ft 477 kts 156°
2026-05-01 14:01 47.30609 16.65720 22265 ft 480 kts 155°
2026-05-01 14:01 47.27443 16.67366 22791 ft 486 kts 155°
2026-05-01 14:01 47.24225 16.69033 23370 ft 489 kts 155°
2026-05-01 14:01 47.21031 16.70672 23953 ft 492 kts 155°
2026-05-01 14:02 47.17779 16.72324 24457 ft 497 kts 155°
2026-05-01 14:02 47.14496 16.73973 25003 ft 500 kts 155°
2026-05-01 14:02 47.11185 16.75626 25423 ft 505 kts 155°
2026-05-01 14:02 47.07817 16.77296 25907 ft 509 kts 155°
2026-05-01 14:03 47.04516 16.78922 26625 ft 507 kts 155°
2026-05-01 14:03 47.01173 16.80557 27390 ft 503 kts 155°
2026-05-01 14:03 46.97841 16.82184 28084 ft 501 kts 155°
2026-05-01 14:03 46.94488 16.83822 28682 ft 500 kts 155°
2026-05-01 14:04 46.91173 16.85441 29190 ft 501 kts 155°
2026-05-01 14:04 46.87902 16.87038 29709 ft 501 kts 155°
2026-05-01 14:04 46.84602 16.88647 30219 ft 501 kts 155°
2026-05-01 14:04 46.81275 16.90268 30717 ft 500 kts 155°
2026-05-01 14:05 46.78009 16.91856 31225 ft 498 kts 155°
2026-05-01 14:05 46.74699 16.93464 31690 ft 497 kts 154°
2026-05-01 14:05 46.71415 16.95058 32117 ft 497 kts 154°
2026-05-01 14:05 46.68115 16.96660 32552 ft 495 kts 154°
2026-05-01 14:06 46.64872 16.98231 32954 ft 495 kts 154°
2026-05-01 14:06 46.61588 16.99818 33400 ft 493 kts 154°
2026-05-01 14:06 46.58301 17.01405 33742 ft 494 kts 154°
2026-05-01 14:06 46.55039 17.02980 34077 ft 494 kts 154°
2026-05-01 14:07 46.51802 17.04542 34366 ft 495 kts 154°
2026-05-01 14:07 46.48520 17.06122 34791 ft 492 kts 154°
2026-05-01 14:07 46.45305 17.07664 35154 ft 490 kts 154°
2026-05-01 14:08 46.38789 17.10796 35312 ft 497 kts 154°
2026-05-01 14:08 46.32164 17.13974 35317 ft 498 kts 154°
2026-05-01 14:09 46.25552 17.17128 35316 ft 498 kts 154°
2026-05-01 14:09 46.18944 17.20274 35313 ft 498 kts 154°
2026-05-01 14:10 46.12364 17.23391 35311 ft 498 kts 154°
2026-05-01 14:10 46.05817 17.26491 35316 ft 498 kts 154°
2026-05-01 14:11 45.99179 17.29630 35311 ft 498 kts 154°
2026-05-01 14:11 45.89588 17.34805 35309 ft 493 kts 149°
2026-05-01 14:12 45.83172 17.38593 35307 ft 494 kts 149°
2026-05-01 14:12 45.76846 17.42313 35306 ft 492 kts 149°
2026-05-01 14:13 45.70451 17.46033 35284 ft 496 kts 149°
2026-05-01 14:13 45.64073 17.49695 35288 ft 493 kts 150°
2026-05-01 14:14 45.57697 17.53344 35277 ft 495 kts 149°
2026-05-01 14:14 45.51331 17.56968 35267 ft 494 kts 150°
2026-05-01 14:15 45.44921 17.60602 35267 ft 494 kts 150°
2026-05-01 14:15 45.38520 17.64226 35270 ft 496 kts 150°
2026-05-01 14:16 45.32131 17.67833 35276 ft 496 kts 150°
2026-05-01 14:16 45.25720 17.71449 35289 ft 496 kts 151°
2026-05-01 14:17 45.19281 17.75063 35460 ft 496 kts 151°
2026-05-01 14:17 45.16106 17.76848 35337 ft 497 kts 151°
2026-05-01 14:17 45.12894 17.78643 35306 ft 493 kts 150°
2026-05-01 14:18 45.06441 17.82254 35291 ft 498 kts 150°
2026-05-01 14:18 45.01076 17.85251 35289 ft 497 kts 151°
2026-05-01 14:19 44.93620 17.89400 35286 ft 497 kts 151°
2026-05-01 14:19 44.87221 17.92959 35268 ft 498 kts 151°
2026-05-01 14:20 44.77545 17.98320 35276 ft 496 kts 152°
2026-05-01 14:21 44.71172 18.01836 35284 ft 497 kts 152°
2026-05-01 14:21 44.64726 18.05386 35267 ft 495 kts 152°
2026-05-01 14:22 44.55020 18.10717 35261 ft 497 kts 153°
2026-05-01 14:22 44.48698 18.14176 35257 ft 498 kts 153°
2026-05-01 14:23 44.42267 18.17688 35252 ft 500 kts 153°
2026-05-01 14:23 44.35823 18.21197 35254 ft 498 kts 153°
2026-05-01 14:24 44.29357 18.24710 35234 ft 498 kts 153°
2026-05-01 14:24 44.22855 18.28237 35212 ft 499 kts 154°
2026-05-01 14:25 44.16434 18.31710 35235 ft 497 kts 154°
2026-05-01 14:25 44.09989 18.35192 35230 ft 497 kts 154°
2026-05-01 14:26 44.00288 18.40414 35236 ft 496 kts 155°
2026-05-01 14:27 43.93861 18.43858 35253 ft 497 kts 155°
2026-05-01 14:27 43.87391 18.47322 35255 ft 499 kts 155°
2026-05-01 14:28 43.77687 18.52503 35251 ft 500 kts 155°
2026-05-01 14:28 43.71161 18.55974 35222 ft 499 kts 155°
2026-05-01 14:29 43.64681 18.59417 35210 ft 500 kts 156°
2026-05-01 14:30 43.51647 18.66313 35190 ft 499 kts 157°
2026-05-01 14:31 43.41916 18.71438 35179 ft 500 kts 157°
2026-05-01 14:31 43.35441 18.74841 35156 ft 499 kts 157°
2026-05-01 14:32 43.28920 18.78259 35119 ft 499 kts 158°
2026-05-01 14:32 43.22433 18.81652 35111 ft 499 kts 158°
2026-05-01 14:33 43.15994 18.85013 35146 ft 498 kts 158°
2026-05-01 14:33 43.09476 18.88406 35161 ft 499 kts 158°
2026-05-01 14:34 43.02998 18.91771 35167 ft 498 kts 158°
2026-05-01 14:34 42.96521 18.95126 35177 ft 498 kts 158°
2026-05-01 14:35 42.90063 18.98464 35167 ft 498 kts 158°
2026-05-01 14:35 42.83561 19.01817 35170 ft 499 kts 158°
2026-05-01 14:36 42.77063 19.05163 35157 ft 498 kts 159°
2026-05-01 14:36 42.70573 19.08498 35154 ft 499 kts 159°
2026-05-01 14:37 42.64101 19.11815 35161 ft 499 kts 159°
2026-05-01 14:37 42.57614 19.15131 35163 ft 499 kts 159°
2026-05-01 14:38 42.51133 19.18439 34986 ft 491 kts 159°
2026-05-01 14:38 42.47924 19.20073 34542 ft 487 kts 159°
2026-05-01 14:38 42.44785 19.21671 33909 ft 487 kts 159°
2026-05-01 14:38 42.41582 19.23299 33220 ft 491 kts 159°
2026-05-01 14:39 42.38420 19.24905 32513 ft 495 kts 159°
2026-05-01 14:39 42.35165 19.26556 32050 ft 492 kts 159°
2026-05-01 14:39 42.32010 19.28154 31476 ft 486 kts 158°
2026-05-01 14:39 42.28863 19.29746 30771 ft 483 kts 158°
2026-05-01 14:40 42.25693 19.31348 29695 ft 483 kts 158°
2026-05-01 14:40 42.22589 19.32914 28358 ft 487 kts 158°
2026-05-01 14:40 42.19369 19.34538 26836 ft 492 kts 158°
2026-05-01 14:40 42.16192 19.36139 25737 ft 486 kts 158°
2026-05-01 14:41 42.13081 19.37704 24821 ft 476 kts 158°
2026-05-01 14:41 42.09970 19.39267 23827 ft 467 kts 158°
2026-05-01 14:41 42.06952 19.40782 23031 ft 462 kts 158°
2026-05-01 14:41 42.03933 19.42296 22256 ft 459 kts 158°
2026-05-01 14:42 42.00941 19.43762 21475 ft 455 kts 159°
2026-05-01 14:42 41.97934 19.45046 20612 ft 454 kts 163°
2026-05-01 14:42 41.94900 19.45969 19931 ft 449 kts 168°
2026-05-01 14:42 41.91830 19.46654 19225 ft 445 kts 170°
2026-05-01 14:43 41.88749 19.47215 18436 ft 443 kts 171°
2026-05-01 14:43 41.85710 19.47713 17663 ft 441 kts 172°
2026-05-01 14:43 41.82701 19.48195 16905 ft 438 kts 172°
2026-05-01 14:43 41.79649 19.48690 16140 ft 434 kts 172°
2026-05-01 14:44 41.76683 19.49183 15425 ft 430 kts 172°
2026-05-01 14:44 41.70811 19.50198 14021 ft 421 kts 171°
2026-05-01 14:44 41.67918 19.50710 13302 ft 417 kts 171°
2026-05-01 14:45 41.65075 19.51217 12605 ft 413 kts 171°
2026-05-01 14:45 41.59413 19.52231 11186 ft 404 kts 171°
2026-05-01 14:45 41.56667 19.52722 10628 ft 394 kts 171°
2026-05-01 14:46 41.53989 19.53201 10491 ft 384 kts 171°
2026-05-01 14:46 41.48685 19.54150 10233 ft 385 kts 171°
2026-05-01 14:46 41.46027 19.54624 10038 ft 384 kts 171°
2026-05-01 14:47 41.43392 19.55094 9527 ft 377 kts 171°
2026-05-01 14:47 41.40851 19.55544 9052 ft 360 kts 171°
2026-05-01 14:47 41.38392 19.55978 8623 ft 348 kts 171°
2026-05-01 14:48 41.33794 19.56786 7820 ft 322 kts 170°
2026-05-01 14:48 41.31612 19.57170 7435 ft 311 kts 169°
2026-05-01 14:48 41.27438 19.57904 6704 ft 292 kts 169°
2026-05-01 14:49 41.23517 19.58599 6015 ft 280 kts 169°
2026-05-01 14:49 41.19800 19.59689 5306 ft 261 kts 149°
2026-05-01 14:50 41.18013 19.62530 4813 ft 242 kts 106°
2026-05-01 14:50 41.17767 19.67638 4217 ft 235 kts 82°
2026-05-01 14:51 41.17984 19.69773 4153 ft 235 kts 81°
2026-05-01 14:51 41.19253 19.73667 3992 ft 235 kts 43°
2026-05-01 14:52 41.22431 19.74554 3395 ft 245 kts 356°
2026-05-01 14:52 41.24120 19.74134 3113 ft 244 kts 355°
2026-05-01 14:52 41.27497 19.73524 2563 ft 241 kts 359°
2026-05-01 14:53 41.29164 19.73310 2305 ft 241 kts 359°
2026-05-01 14:53 41.30822 19.73117 2114 ft 230 kts 360°
2026-05-01 14:53 41.32326 19.72952 1867 ft 208 kts 360°
2026-05-01 14:53 41.33730 19.72802 1586 ft 191 kts
2026-05-01 14:54 41.34992 19.72677 1329 ft 177 kts
2026-05-01 14:54 41.36175 19.72562 1062 ft 163 kts
2026-05-01 14:54 41.37273 19.72456 814 ft 150 kts
2026-05-01 14:54 41.38265 19.72364 587 ft 138 kts
2026-05-01 14:55 41.39207 19.72316 397 ft 136 kts
2026-05-01 14:55 41.40147 19.72223 200 ft 135 kts 359°
2026-05-01 14:55 41.41044 19.72119 130 ft 107 kts 356°
2026-05-01 14:55 41.41551 19.72050 125 ft 54 kts 354°
2026-05-01 14:56 41.41890 19.71958 120 ft 34 kts 289°
2026-05-01 14:56 41.41885 19.71858 119 ft 3 kts 262°
2026-05-01 14:56 41.41879 19.71787 119 ft 12 kts 264°
2026-05-01 14:56 41.41870 19.71662 120 ft 9 kts 264°
2026-05-01 14:57 41.41890 19.71592 119 ft 9 kts 345°
2026-05-01 14:57 41.41957 19.71518 118 ft 0 kts 263°